"Pseudo-MPEC" for ZTF02s0

Created 2019 Feb 15 23:18:17 UT using Find_Orb

Click here for an explanation of pseudo-MPECs

 
 Astrometry: 
     ZTF02s0  C2019 02 09.25299609 32 04.70 +15 49 32.4    ~2A0X 19.20RUNEOCPI41
     ZTF02s0  C2019 02 09.25334309 32 03.35 +15 49 38.6    ~2A0X 19.20RUNEOCPI41
     ZTF02s0  C2019 02 09.26451209 31 22.58 +15 53 00.2    ~2A0X 19.02RUNEOCPI41
     ZTF02s0  C2019 02 09.26486009 31 21.26 +15 53 06.5    ~2A0X 19.02RUNEOCPI41
     ZTF02s0  C2019 02 09.28475209 30 07.69 +15 59 02.7    ~2E3I 18.88RUNEOCPI41
     ZTF02s0  C2019 02 09.28509909 30 06.36 +15 59 08.5    ~2E3I 18.88RUNEOCPI41
     ZTF02s0  C2019 02 09.31520509 28 14.05 +16 07 47.7    ~2A23 19.08RUNEOCPI41
     ZTF02s0  C2019 02 09.31555209 28 12.75 +16 07 53.7    ~2A23 19.08RUNEOCPI41
     ZTF02s0  C2019 02 09.34203109 26 33.96 +16 15 08.4    ~2E3I 18.96RUNEOCPI41
     ZTF02s0  C2019 02 09.34237809 26 32.66 +16 15 14.0    ~2E3I 18.96RUNEOCPI41
     ZTF02s0  C2019 02 09.36585309 25 05.40 +16 21 24.2    ~2A23 18.93RUNEOCPI41
     ZTF02s0  C2019 02 09.36620009 25 03.98 +16 21 30.0    ~2A23 18.93RUNEOCPI41

Station data:
(I41) Palomar Mountain--ZTF  (N33.357340 W116.859780)  US/California. 1.2-m
   f/2.44 Oschin Schmidt + CCD.

Orbital elements:  ZTF02s0
   Perigee 2019 Feb 7.435924 +/- 0.11 TT = 10:27:43 (JD 2458521.935924)
Epoch 2019 Feb  9.0 TT = JDT 2458523.5                        AutoNEOCP
q558076.250 +/- 12209               (J2000 equator)
H   31.3  G 0.15                    Peri.   12.99146 +/- 2.0
                                    Node   177.92102 +/- 0.49
e   2.7763726 +/- 0.2               Incl.  153.49367 +/- 0.06
From 12 observations 2019 Feb. 9 (2.7 hr); mean residual 0".82
Residuals in arcseconds: 
190209 I41  .23-  1.0+    190209 I41  .58+  .06-    190209 I41  .73+  .22-    
190209 I41  1.4-  .84+    190209 I41  .01-  .37-    190209 I41  .65+  .20-    
190209 I41  1.4+  1.2-    190209 I41  1.1-  .64+    190209 I41  .85+  .27-    
190209 I41  .80+  1.2-    190209 I41  1.1-  .81+    190209 I41  1.1-  .17+    

Ephemerides (geocentric):
Date (UTC) HH   RA              Dec         delta   r     elong  mag " sig PA
---- -- -- --  -------------   -----------  ------ ------ -----  --- ---- ---
2019 02 15 23  06 14 04.630   +26 24 48.22  .00771 0.9924 126.4 22.7  300  52
2019 02 16 00  06 13 28.011   +26 25 09.87  .00773 0.9924 126.2 22.7  298  51
2019 02 16 01  06 12 51.659   +26 25 30.79  .00776 0.9924 126.0 22.7  296  51
2019 02 16 02  06 12 15.572   +26 25 50.98  .00779 0.9924 125.9 22.7  294  50
2019 02 16 03  06 11 39.745   +26 26 10.47  .00782 0.9924 125.7 22.7  292  50
2019 02 16 04  06 11 04.178   +26 26 29.27  .00784 0.9924 125.5 22.8  290  49
2019 02 16 05  06 10 28.868   +26 26 47.40  .00787 0.9924 125.3 22.8  288  49
2019 02 16 06  06 09 53.811   +26 27 04.85  .00790 0.9924 125.2 22.8  286  48
2019 02 16 07  06 09 19.006   +26 27 21.66  .00793 0.9924 125.0 22.8  284  48
2019 02 16 08  06 08 44.450   +26 27 37.82  .00795 0.9924 124.8 22.8  282  47
2019 02 16 09  06 08 10.141   +26 27 53.35  .00798 0.9924 124.6 22.8  280  46
2019 02 16 10  06 07 36.076   +26 28 08.27  .00801 0.9924 124.5 22.8  278  46
2019 02 16 11  06 07 02.253   +26 28 22.59  .00804 0.9924 124.3 22.8  276  45
2019 02 16 12  06 06 28.669   +26 28 36.31  .00806 0.9924 124.1 22.9  274  45
2019 02 16 13  06 05 55.323   +26 28 49.46  .00809 0.9924 124.0 22.9  272  44
2019 02 16 14  06 05 22.212   +26 29 02.03  .00812 0.9924 123.8 22.9  270  43
2019 02 16 15  06 04 49.334   +26 29 14.04  .00815 0.9924 123.6 22.9  268  43
2019 02 16 16  06 04 16.686   +26 29 25.51  .00818 0.9924 123.5 22.9  266  42
2019 02 16 17  06 03 44.266   +26 29 36.44  .00820 0.9924 123.3 22.9  264  42
2019 02 16 18  06 03 12.072   +26 29 46.84  .00823 0.9924 123.2 22.9  263  41
2019 02 16 19  06 02 40.102   +26 29 56.72  .00826 0.9924 123.0 22.9  261  40
2019 02 16 20  06 02 08.354   +26 30 06.10  .00829 0.9924 122.8 22.9  259  40
2019 02 16 21  06 01 36.825   +26 30 14.97  .00831 0.9925 122.7 23.0  257  39
2019 02 16 22  06 01 05.514   +26 30 23.36  .00834 0.9925 122.5 23.0  255  38
2019 02 16 23  06 00 34.418   +26 30 31.27  .00837 0.9925 122.4 23.0  254  37
2019 02 17 00  06 00 03.536   +26 30 38.71  .00840 0.9925 122.2 23.0  252  37
2019 02 17 01  05 59 32.864   +26 30 45.69  .00842 0.9925 122.0 23.0  250  36
2019 02 17 02  05 59 02.403   +26 30 52.22  .00845 0.9925 121.9 23.0  249  35
2019 02 17 03  05 58 32.148   +26 30 58.30  .00848 0.9925 121.7 23.0  247  35
2019 02 17 04  05 58 02.098   +26 31 03.95  .00851 0.9925 121.6 23.0  246  34
2019 02 17 05  05 57 32.252   +26 31 09.17  .00854 0.9925 121.4 23.1  244  33
2019 02 17 06  05 57 02.608   +26 31 13.98  .00856 0.9925 121.3 23.1  243  32
2019 02 17 07  05 56 33.163   +26 31 18.37  .00859 0.9925 121.1 23.1  241  31
2019 02 17 08  05 56 03.915   +26 31 22.36  .00862 0.9925 121.0 23.1  240  31
2019 02 17 09  05 55 34.864   +26 31 25.96  .00865 0.9925 120.8 23.1  238  30
2019 02 17 10  05 55 06.006   +26 31 29.16  .00867 0.9925 120.7 23.1  237  29
2019 02 17 11  05 54 37.340   +26 31 31.99  .00870 0.9925 120.5 23.1  236  28
2019 02 17 12  05 54 08.865   +26 31 34.45  .00873 0.9925 120.4 23.1  234  27
2019 02 17 13  05 53 40.578   +26 31 36.54  .00876 0.9925 120.2 23.1  233  27
2019 02 17 14  05 53 12.477   +26 31 38.27  .00879 0.9925 120.1 23.2  232  26
2019 02 17 15  05 52 44.562   +26 31 39.65  .00881 0.9925 119.9 23.2  231  25
2019 02 17 16  05 52 16.830   +26 31 40.68  .00884 0.9925 119.8 23.2  229  24
2019 02 17 17  05 51 49.280   +26 31 41.37  .00887 0.9925 119.6 23.2  228  23
2019 02 17 18  05 51 21.909   +26 31 41.74  .00890 0.9925 119.5 23.2  227  22
2019 02 17 19  05 50 54.716   +26 31 41.77  .00892 0.9925 119.4 23.2  226  21
2019 02 17 20  05 50 27.700   +26 31 41.49  .00895 0.9925 119.2 23.2  225  21
2019 02 17 21  05 50 00.859   +26 31 40.90  .00898 0.9925 119.1 23.2  224  20
2019 02 17 22  05 49 34.191   +26 31 39.99  .00901 0.9925 118.9 23.2  224  19